SL-12 R/B(AUX MOTOR), 33472

Orbit data source: Space-Track

SL-12 R/B(AUX MOTOR), 33472 is space debris in HEO originally from a launch on Thu, 25 Dec 2008 UTC launched from the Tyuratam Missile And Space Complex (TTMTR). Debris objects in space refer to the collection of defunct objects orbiting the Earth. Examples of debris include non-operational satellites, rocket bodies, and fragments generated from explosions, collisions, or faulty payload assembly.

Loading next visibility...
Identifier
33472, 2008-067G
Orbit
HEO
Country
Flag of CISCIS
Related business
Manufacturer
RKKE
Mission
Spacecraft
Bus & Motor
SOZ, Unknown motor
Mass
56 kg wet, 56 kg dry
Launch date (UTC)
2008-12-25 (17 years ago)
Launch vehicle
Unknown
Launch site
Tyuratam Missile And Space Complex (TTMTR)
Object type
Payload
Rocket body
Debris
Shape & HBR
Cyl, 0.6 m
Radar Cross Section
0.660 m², Medium (>0.1 m² and < 1m²)

Expand to show TLE details & history
Last TLE update: 3 days ago

TLE from 3 days ago
0 SL-12 R/B(AUX MOTOR)
1 33472U 08067G   26170.99178409 -.00000028  00000-0 -70906-4 0  9991
2 33472  65.0078  60.5930 5572124 278.6332  25.1095  4.40025561271983
Epoch: 2026-06-19T23:48Z
TLE epoch observation values (Epoch: 2026-06-19T23:48:10.145Z)
Latitude
-0.00003°
Longitude
155.35429°
Altitude
3,646.796 km
Speed
7.362 km/s
True Right ascension
04h 02m 26s
True Declination
0° 00' 00"
Sunlit
Object was in daylight at epoch
Visualization orbit readout
Latitude
Unknown
Longitude
Unknown
Altitude
Unknown
Speed
Unknown
Apparent Right ascension
Unknown
Apparent Declination
Unknown
Sunlit
N/A
Visualization observer readout
Local Sidereal Time
23:20:14
Azimuth
Unknown
Elevation
Unknown
Doppler factor
Unknown
Orbital elements
Apogee altitude
18,116.255 km
Perigee altitude
586.753 km
Semi-major axis
15,729.641 km
Eccentricity
0.55721
Inclination
65.0078°
RAAN
60.593°
Arg. of periapsis
278.6332°
True anomaly
81.45656°
Mean anomaly
25.1095°
Eccentric anomaly
49.32141°
Mean motion
1.10018 °/min
Orbital period
327.22 mins
BSTAR
-0.000070906
Loading maneuver chart data...
Computing Atmospheric mass density...
Loading historical data...
Loading historical data...
Loading historical data...
Loading historical data...
Loading historical data...
Loading historical data...
Loading historical data...

Documentation

Showing up to 5 results
|